Location: Eastchurch
(51.4000°N, 0.8667°E)
Time: 23:22:49
(UTC+00:00)

Cosmos 1992 Rocket - Pass Details

Date: 19 January 2026
Orbit: 754 x 761 km, 74.0° (Epoch: 17 February)

Event Time Altitude Azimuth Distance (km) Brightness Sun altitude
Rises 18:12:32 0° 189° (S) 3,195 7.5 -16.5°
Reaches altitude 10° 18:14:55 10° 185° (S) 2,274 6.6 -16.8°
Maximum altitude 18:19:56 55° 108° (ESE) 905 4.0 -17.6°
Enters shadow 18:22:53 24° 40° (NE) 1,529 5.1 -18.0°
